Location: Bulza
(45.9333°N, 22.3333°E)
Time: 17:33:50
(UTC+00:00)

Daily predictions for brighter satellites

Satellite Brightness Start Highest point End
(mag) Time Altitude Azimuth Time Altitude Azimuth Time Altitude Azimuth
ATLAS 5 CENTAUR R/B 4.5 18:28:43 10° WNW 18:33:14 23° WSW 18:38:13 10° SSW
Resurs 1-3 3.6 18:29:18 10° SSE 18:33:39 71° ENE 18:38:01 10° N
MOS 1-B Rocket 4.3 18:33:01 10° NNE 18:40:02 88° WNW 18:46:02 10° SSW
Cosmos 2278 Rocket 2.4 18:37:59 10° SSW 18:43:39 80° WNW 18:49:20 10° NNE
ARIANE 5 R/B 4.2 18:41:52 10° ESE 18:45:02 20° ENE 18:48:12 10° NNE
Cosmos 1271 Rocket 3.2 18:43:24 10° SSE 18:47:12 43° E 18:51:00 10° NNE
COSMOS 2406 3.7 18:41:43 10° NNW 18:47:18 59° WSW 18:52:51 10° S
Cosmos 2369 Rocket 4.0 18:45:48 10° ESE 18:47:23 11° E 18:48:57 10° ENE
Meteor 1-10 Rocket 4.5 18:43:32 10° SSE 18:48:54 50° E 18:54:25 10° NNE
Cosmos 1461 4.3 18:45:59 10° SSE 18:49:43 24° ESE 18:53:26 10° ENE
Cosmos 1818 4.5 18:45:37 10° NNW 18:50:47 40° NE 18:55:54 10° ESE
Cosmos 1709 Rocket 4.5 18:45:23 10° NNW 18:51:24 62° W 18:57:25 10° S
SL-24 R/B - RUBIN 2 4.3 18:47:31 10° NNW 18:52:56 55° NE 18:57:26 11° SE
USA 267 4.0 18:47:06 10° SSE 18:53:19 46° SW 18:59:34 10° WNW
Landsat 7 4.1 18:49:40 10° SSE 18:54:18 55° ENE 18:58:58 10° N
Cosmos 1666 2.6 18:52:49 10° N 18:56:32 68° E 19:00:14 10° SSE
USA 305 4.5 18:55:26 10° WNW 18:59:01 27° SW 19:02:36 10° S
Cosmos 1536 3.9 18:57:55 10° N 19:01:31 30° ENE 19:04:23 14° SE
Cosmos 2074 Rocket 4.1 18:56:56 10° N 19:03:13 66° ENE 19:09:28 10° SSE
SPOT 5 4.4 19:00:38 11° ESE 19:04:44 27° ENE 19:09:10 10° N
ERBS 3.1 19:01:41 10° NW 19:04:51 43° NNE 19:07:36 13° ESE
Cosmos 2184 Rocket 4.0 19:00:31 10° N 19:06:42 67° E 19:12:49 10° SSE
SWARM C 4.5 19:04:10 10° N 19:07:30 87° E 19:10:48 10° S
SWARM A 4.2 19:04:17 10° N 19:07:37 89° WSW 19:10:55 10° S
Cosmos 1833 Rocket 3.8 19:02:52 10° NW 19:08:07 40° WSW 19:13:20 10° S
CZ-2C R/B 3.0 19:06:22 10° SSW 19:08:13 13° S 19:08:47 13° SSE
CZ-4C R/B 4.1 19:01:33 10° NW 19:08:25 40° WSW 19:16:06 10° S
Cosmos 1812 3.3 19:06:00 10° SSW 19:09:47 60° W 19:13:38 10° N
OBJECT-B 3.6 19:09:49 10° SW 19:12:03 17° W 19:14:17 10° NW
Meteor 2-6 Rocket 4.3 19:06:54 10° SSW 19:12:22 82° W 19:18:01 10° N
ERS-1 Rocket 4.1 19:09:06 13° ESE 19:12:47 30° ENE 19:17:08 10° N
Cosmos 1515 Rocket 4.1 19:12:13 10° SSW 19:16:32 60° W 19:20:53 10° N
BREEZE-M R/B 3.2 19:14:33 10° WNW 19:16:54 34° N 19:19:17 10° ENE
Cosmos 2112 Rocket 4.2 19:12:39 10° NNW 19:17:59 61° ENE 19:22:07 17° SE
ISS -3.1 19:19:21 10° WSW 19:22:41 59° NNW 19:26:01 10° ENE
Cosmos 1869 Rocket 3.6 19:19:25 10° N 19:23:43 61° E 19:26:54 18° SSE
Cosmos 1937 Rocket 3.9 19:19:10 10° S 19:23:58 42° ESE 19:28:50 10° NE
Spot 2 Rocket 3.7 19:20:28 16° SE 19:24:19 55° ENE 19:29:15 10° N
Cosmos 44 3.5 19:22:25 10° NW 19:27:52 82° WSW 19:31:42 19° SSE
Cosmos 2228 Rocket 3.0 19:25:04 10° S 19:29:30 79° E 19:34:01 10° N
SPOT 1/Viking Rocket 3.5 19:25:15 15° SSE 19:29:38 81° ENE 19:34:50 10° NNW
Meteor 2-12 Rocket 4.4 19:24:10 10° N 19:30:15 79° E 19:35:24 15° SSE
Cosmos 1743 3.5 19:30:34 10° N 19:34:11 36° ENE 19:35:58 23° SE
MetOp-B 4.3 19:29:25 12° S 19:34:19 76° WSW 19:39:42 10° NNW
Meteor 1-27 Rocket 3.8 19:29:15 10° S 19:35:05 75° E 19:41:03 10° NNE
Resurs 01 Rocket 2.5 19:31:06 10° S 19:35:21 45° W 19:39:38 10° NNW
RESURS DK-1 4.3 19:32:26 10° N 19:35:28 19° NE 19:38:05 12° E
Cosmos 2084 Rocket 3.5 19:32:55 10° NW 19:37:13 82° SW 19:39:54 23° SSE
IGS 5A 4.4 19:34:51 10° S 19:38:49 44° W 19:42:49 10° NNW
Cosmos 1707 Rocket 4.0 19:37:38 22° SSE 19:40:06 43° E 19:44:18 10° NNE
CARTOSAT-1 3.6 19:38:27 22° SSE 19:41:07 65° ENE 19:45:23 10° N
Cosmos 1680 Rocket 3.6 19:37:29 10° NNW 19:42:49 75° WSW 19:46:39 19° S
DNEPR-1 R/B 4.0 19:37:33 10° SSW 19:43:37 80° SE 19:48:37 10° NE
Cosmos 1867 4.3 19:43:24 19° SSE 19:46:22 33° ESE 19:51:12 10° NE
SPOT 3 Rocket 4.4 19:41:53 10° S 19:46:49 46° W 19:51:46 10° NNW
SJ 16-02 3.7 19:46:42 10° WSW 19:50:23 25° WNW 19:54:05 10° N
Cosmos 2297 3.7 19:45:03 10° SSW 19:50:44 90° WNW 19:56:28 10° NNE
Iridium 4 Rocket 4.2 19:46:04 10° SSW 19:51:55 65° W 19:57:46 10° N
Tianhe-1 1.8 19:53:22 10° WSW 19:56:10 35° S 19:56:10 35° S
Cosmos 372 Rocket 4.2 19:56:49 24° SSE 19:59:32 48° ESE 20:04:26 10° NNE
Cosmos 1943 Rocket 2.1 19:55:46 10° SSW 20:01:24 84° ESE 20:07:01 10° NNE
Gbstr 26 Del rocket 4.2 19:54:16 10° WNW 20:01:58 73° SW 20:05:58 26° SE
Terra 2.1 19:59:45 28° SE 20:02:02 55° ENE 20:06:42 10° N
Cosmos 2082 Rocket 3.7 19:58:30 10° NW 20:03:14 29° WSW 20:07:52 10° SSW
ATLAS 2AS CENTAUR R/B 3.2 19:56:19 10° NW 20:03:23 54° WSW 20:07:46 22° S
Cosmos 1515 3.7 20:04:45 38° SSE 20:05:57 59° E 20:09:42 10° NNE
Cosmos 1733 Rocket 3.2 20:02:13 10° N 20:06:29 57° ENE 20:08:05 35° SE
Cosmos 2341 Rocket 4.1 20:00:10 10° N 20:06:34 69° E 20:10:16 26° SSE
Cosmos 1656 Rocket 4.4 20:05:34 28° SE 20:07:01 32° ESE 20:11:52 10° NE
Cosmos 1544 3.4 20:04:12 10° NNW 20:07:47 60° W 20:09:21 30° SSW
Cosmos 2218 Rocket 4.4 20:03:53 10° N 20:10:01 49° ENE 20:13:14 27° SE
Cosmos 1340 Rocket 3.2 20:06:38 10° NNW 20:10:41 61° W 20:12:36 28° SSW
Cosmos 1898 Rocket 4.2 20:09:11 10° SW 20:14:23 55° WNW 20:19:39 10° NNE
Okean 1 3.3 20:13:39 41° SSE 20:14:51 64° E 20:18:48 10° NNE
SL-8 Rocket 4.1 20:12:35 10° N 20:18:54 67° E 20:22:07 30° SSE
USA 245 4.5 20:18:58 16° WSW 20:19:25 17° W 20:21:06 10° NW
ARIANE 5 R/B 3.4 20:18:52 23° SSW 20:21:11 45° W 20:25:22 10° NNW
H-2A R/B 3.3 20:24:06 10° NNE 20:28:16 76° ESE 20:29:32 44° S
Cosmos 1908 Rocket 4.4 20:24:12 10° N 20:28:23 37° ENE 20:29:24 33° ESE
Cosmos 1461 4.0 20:23:57 10° SW 20:28:32 51° NW 20:33:03 10° NNE
Cosmos 2369 Rocket 2.1 20:26:35 22° SSW 20:30:22 77° ESE 20:36:03 10° NNE
Milstar 3 4.4 20:18:27 10° WSW 20:30:28 29° SSW 20:33:40 25° S
Cosmos 1818 4.4 20:29:16 10° NW 20:34:23 40° WSW 20:36:36 28° SSW
ATLAS CENTAUR R/B 1.0 20:36:26 62° ESE 20:36:26 62° ESE 20:40:06 10° NE
ERBS 4.0 20:38:08 10° WNW 20:40:21 22° WSW 20:40:21 22° WSW
SPOT 5 3.8 20:39:51 26° SSW 20:42:29 48° W 20:47:41 10° NNW
Cosmos 1238 Rocket 3.5 20:37:01 10° NNW 20:42:35 71° W 20:44:23 38° SSW
Cosmos 864 Rocket 4.4 20:36:56 10° N 20:43:07 79° E 20:45:43 37° SSE
Okean 1-7 3.7 20:44:31 37° E 20:44:41 37° E 20:48:40 10° NNE
Cosmos 1959 Rocket 4.4 20:39:23 10° N 20:45:37 85° E 20:48:14 37° SSE
Meteor 2-9 Rocket 4.2 20:43:08 10° NNW 20:48:50 75° W 20:51:03 38° S
Cosmos 2150 Rocket 4.1 20:48:30 44° SSE 20:49:49 57° ESE 20:54:59 10° NNE
Cosmos 2242 Rocket 3.9 20:50:27 47° ESE 20:50:54 49° E 20:55:15 10° NNE
ERS-1 Rocket 4.0 20:49:06 24° SSW 20:51:28 38° W 20:56:08 10° NNW
Cosmos 1125 Rocket 3.8 20:50:54 43° SE 20:51:42 46° ESE 20:56:40 10° NNE
Cosmos 1862 Rocket 4.0 20:54:15 34° SW 20:55:51 55° WNW 21:00:07 10° N
Meteor 1-18 Rocket 4.3 20:54:25 31° SSW 20:57:11 75° WNW 21:02:46 10° N
Cosmos 1975 2.8 20:53:17 10° NNW 20:57:16 74° W 20:57:45 64° SSW
Cosmos 1703 Rocket 3.7 20:57:18 52° ESE 20:57:40 54° E 21:02:00 10° NNE
ISS -1.8 20:56:53 10° WNW 20:59:54 30° N 21:02:56 10° ENE
Cosmos 1607 4.0 20:54:27 11° SW 21:00:37 84° NW 21:07:10 10° NE
Cosmos 1782 Rocket 4.1 20:56:58 10° N 21:01:14 45° ENE 21:01:45 43° E
Cosmos 1378 4.4 21:04:20 30° ENE 21:04:20 30° ENE 21:07:02 10° NNE
Lacrosse 5 2.0 21:09:47 52° SE 21:09:47 52° SE 21:14:37 10° ENE
Cosmos 2263 4.4 21:09:27 25° SW 21:12:57 72° WNW 21:18:47 10° NNE
RESURS DK-1 2.7 21:09:45 10° NW 21:13:49 53° WSW 21:13:57 53° WSW
Cosmos 1821 Rocket 4.0 21:14:45 10° N 21:21:11 73° E 21:23:13 45° SSE
Cosmos 2297 Rocket 4.2 21:18:27 10° N 21:22:42 21° NE 21:26:53 10° E
Cosmos 2366 rocket 4.5 21:16:55 10° NNW 21:22:54 52° W 21:25:29 32° SSW
Cosmos 1356 Rocket 3.5 21:21:13 10° N 21:25:31 63° ENE 21:25:42 62° E
NOSS 2-1 (E) 4.4 21:22:39 10° NW 21:27:36 69° NE 21:30:12 37° ESE
Meteor 1-12 Rocket 4.3 21:22:05 10° N 21:27:55 74° ENE 21:29:22 51° SSE
Cosmos 1048 Rocket 4.3 21:23:26 10° NNW 21:28:36 55° WSW 21:29:35 47° SW
Okean 3 3.6 21:30:08 60° E 21:30:08 60° E 21:34:09 10° NNE
Meteor 2-4 Rocket 4.0 21:28:24 36° SW 21:30:38 61° WNW 21:36:08 10° N
Cosmos 44 Rocket 3.3 21:32:25 10° NW 21:37:38 72° WSW 21:38:15 64° S
SL-27 R/B 3.8 21:35:43 10° NW 21:38:02 33° WNW 21:38:02 33° WNW
Terra 3.8 21:38:38 16° WSW 21:40:07 18° W 21:43:25 10° NW
Cosmos 1766 4.4 21:38:27 10° N 21:41:52 33° ENE 21:41:52 33° ENE
COSMOS 2455 3.7 21:36:41 10° NNW 21:42:24 43° NE 21:45:34 24° ESE
Cosmos 2221 Rocket 4.2 21:46:13 43° E 21:46:13 43° E 21:50:28 10° NNE
ALOS 2 2.5 21:51:57 79° ESE 21:52:05 80° ENE 21:56:30 10° N
COBE Rocket 4.0 21:51:31 58° SE 21:52:23 70° ENE 21:57:33 10° N
Cosmos 1269 Rocket 4.0 21:48:28 10° NNW 21:53:47 76° ENE 21:54:43 59° SE
Cosmos 1300 Rocket 3.5 21:52:52 10° N 21:57:16 75° E 21:57:16 75° E
Meteor 1-23 Rocket 4.2 22:04:05 58° SSE 22:05:14 77° E 22:11:05 10° NNE
Nadezhda 3 Rocket 4.3 22:06:39 40° SW 22:08:45 59° WNW 22:14:53 10° N
Cosmos 1842 4.4 22:11:27 34° ENE 22:11:27 34° ENE 22:14:24 10° NNE
Thor Agena Rocket 3.7 22:06:26 10° NNE 22:11:39 56° ESE 22:12:11 53° SE
Cosmos 1733 3.6 22:08:48 10° N 22:12:00 62° N 22:12:00 62° N
NOSS 2-1 (C) 4.4 22:08:51 10° NW 22:13:52 58° SW 22:14:45 53° SSW
Cosmos 2369 Rocket 4.4 22:10:47 10° W 22:15:03 22° NW 22:19:22 10° N
Cosmos 2219 4.3 22:10:05 10° NNW 22:15:26 39° NE 22:18:20 24° ESE
ATLAS CENTAUR R/B 3.8 22:13:02 10° W 22:15:37 18° NW 22:18:18 10° N
Sich 1 Rocket 4.0 22:18:54 10° NNW 22:23:17 52° W 22:23:17 52° W
COSMOS 2487 4.1 22:23:05 10° NNW 22:24:59 27° NW 22:24:59 27° NW
Cosmos 1605 Rocket 4.0 22:21:18 10° N 22:27:38 83° E 22:29:21 52° SSE
Okean 2 Rocket 3.3 22:27:18 10° NNW 22:31:30 60° W 22:31:30 60° W
Cosmos 1707 4.3 22:32:53 26° ENE 22:32:53 26° ENE 22:35:40 10° NNE
Cosmos 2151 Rocket 3.6 22:29:41 10° NNW 22:34:08 74° W 22:34:08 74° W
Cosmos 1400 Rocket 3.0 22:30:12 10° N 22:33:54 69° NNE 22:33:54 69° NNE
Cosmos 1726 3.3 22:30:50 10° N 22:33:55 37° ENE 22:33:55 37° ENE
Cosmos 1697 Rocket 4.0 22:36:05 25° ESE 22:36:37 25° ESE 22:41:07 10° NE
ISS -2.2 22:33:59 10° WNW 22:36:27 36° NNW 22:36:27 36° NNW
USA 276 4.4 22:43:44 21° NE 22:43:44 21° NE 22:45:04 10° ENE
Cosmos 1758 4.2 22:41:21 10° N 22:45:13 40° ENE 22:45:21 40° E
Lacrosse 4 Rocket 3.2 22:46:24 22° E 22:46:24 22° E 22:49:14 10° ENE
Cosmos 1315 Rocket 4.0 22:43:15 10° N 22:46:58 34° ENE 22:47:17 34° E
Cosmos 1378 Rocket 3.4 22:47:38 84° NE 22:47:38 84° NE 22:51:51 10° N
Meteor 1-22 Rocket 4.4 22:41:39 10° NNW 22:47:43 73° W 22:49:05 54° SSW
Cosmos 1975 Rocket 4.4 22:51:21 28° E 22:51:37 28° E 22:55:19 10° NNE
Cosmos 1980 Rocket 4.0 22:50:30 17° ESE 22:51:37 18° E 22:55:16 10° ENE
PSLV R/B 3.5 22:47:50 10° NNE 22:52:02 78° E 22:52:02 78° E
Lacrosse 5 3.0 22:48:53 15° W 22:52:47 42° NNW 22:57:38 10° NE
Meteor 2-20 4.4 22:52:57 54° S 22:54:30 85° E 23:00:42 10° N
Cosmos 1674 4.5 23:00:14 23° E 23:00:14 23° E 23:03:14 10° NE
Timation 2 Rocket 3.9 22:54:44 10° NNW 23:00:44 79° ENE 23:02:58 41° SE
Cosmos 1656 3.5 23:00:02 61° S 23:00:54 75° ESE 23:06:27 10° NNE
Cosmos 614 Rocket 4.1 22:58:40 10° NNW 23:03:46 66° ENE 23:05:06 47° SE
SeaSat 1 2.6 23:00:18 10° NE 23:05:10 57° ESE 23:05:37 55° SE
Cosmos 2227 Rocket 2.2 22:59:57 10° NNW 23:05:38 78° ENE 23:07:26 45° SE
USA 281 4.3 23:00:56 10° ESE 23:06:58 41° NE 23:13:02 10° NNW
Cosmos 2297 Rocket 2.1 23:01:44 10° NNW 23:07:26 81° WSW 23:08:40 56° S
Meteor 2-10 4.0 23:03:54 10° NNW 23:09:06 62° W 23:09:41 58° SW
Cosmos 2100 Rocket 4.1 23:05:29 10° N 23:11:50 73° E 23:14:12 41° SSE
YAOGAN 11 4.2 23:13:13 57° ESE 23:13:44 63° ENE 23:18:00 10° N
Okean 1 Rocket 3.4 23:15:25 10° NNW 23:19:30 50° W 23:19:30 50° W
Cosmos 1674 Rocket 4.4 23:19:33 37° W 23:19:55 37° WNW 23:24:06 10° N
Cosmos 1802 Rocket 4.2 23:14:08 10° N 23:20:14 63° ENE 23:22:50 35° SSE
Cosmos 2369 4.3 23:22:04 38° SE 23:23:23 45° ESE 23:28:49 10° NE
Okean 2 4.0 23:23:28 46° WNW 23:23:29 46° WNW 23:27:30 10° N
Cosmos 2082 4.1 23:19:01 10° NNW 23:24:41 60° ENE 23:28:04 24° SE
Helios 1A 2.9 23:24:53 71° ESE 23:25:12 76° ENE 23:29:23 10° N
Cosmos 1000 Rocket 4.5 23:23:42 45° S 23:25:45 79° E 23:32:00 10° N
USA 215 3.4 23:19:42 10° ESE 23:26:12 73° NNE 23:32:44 10° NW
COSMOS 2455 3.4 23:22:47 10° NW 23:28:18 39° WSW 23:28:40 39° WSW
Resurs 1-4 Rocket 3.2 23:25:06 10° NNE 23:29:52 34° E 23:31:39 27° SE
TSX-5 4.2 23:30:24 10° NW 23:33:15 51° WNW 23:33:15 51° WNW
Timation 1 Rocket 4.2 23:29:24 10° NNW 23:35:25 86° WSW 23:37:53 38° SSE
Cosmos 1470 4.0 23:33:36 10° NNW 23:36:35 31° WNW 23:36:35 31° WNW
Cosmos 371 Rocket 3.5 23:36:48 52° WSW 23:37:45 64° WNW 23:42:37 10° NNE
Cosmos 1727 Rocket 4.4 23:36:38 38° SW 23:38:44 52° WNW 23:44:58 10° N
CZ-2D R/B 3.0 23:34:42 10° NNE 23:39:45 40° E 23:41:40 30° SE
Cosmos 1953 2.3 23:35:48 10° N 23:39:48 72° E 23:40:08 67° ESE
Meteor 2-11 Rocket 4.4 23:34:03 10° N 23:40:15 86° E 23:42:44 39° S
Cosmos 2251 Rocket 3.8 23:37:28 10° NNW 23:42:27 45° WSW 23:42:54 44° WSW
Cosmos 1544 Rocket 4.0 23:39:01 10° N 23:43:22 56° ENE 23:44:39 40° SE
SL-24 R/B 4.4 23:43:25 50° WSW 23:43:27 50° W 23:47:34 10° NNW
Cosmos 332 Rocket 3.7 23:43:46 59° SSW 23:44:43 87° WNW 23:49:36 10° NNE
KORONAS-FOTON 3.7 23:49:05 82° S 23:49:16 89° E 23:53:11 10° N
NPP 4.5 23:45:49 10° NNE 23:50:56 41° E 23:53:13 28° SSE
Cosmos 2263 Rocket 3.6 23:46:49 10° NNW 23:52:02 37° NE 23:57:16 10° ESE
Cosmos 1455 Rocket 2.9 23:48:24 10° NNW 23:52:45 72° W 23:53:16 63° SW
SL-14 R/B 4.3 23:55:03 32° ESE 23:55:59 37° E 23:59:40 10° NNE
